Weather in Lyaskelya

Russia / Republic of Karelia     61°45′41″N   31°00′36″E
temp.,
°C
wind,
m/s
gust,
m/s
humid.,
%
clouds,
%
prec.,
mm/h
press.,
hPa
HPBL,
m
3 march, wed
wed300:00−2wnw412900 0.0 1015396
03:00−2wnw412891 0.0 1014421
06:00−3wnw4129052 0.0 1012436
09:00−3w4109245 0.0 1011402
12:00−1w5108896 0.0 1008633
15:000w5108598 0.0 1005911
18:000w61489100 0.3 10011138
21:00−2nw5147967 0.4 1001791
4 march, thu
thu400:00−4nw5128539 0.0 1001569
03:00−6nw4119034 0.0 1002353
06:00−8nw389417 0.0 1002212
09:00−8nnw369438 0.0 1003239
12:00−5nnw358999 0.2 1003440
15:00−4nnw3683100 0.4 1004760
18:00−6nnw398495 0.1 1004432
21:00−9nw3109359 0.1 1005322
5 march, fri
fri500:00−10nw279419 0.0 1005205
03:00−11nw389526 0.0 1006243
06:00−9nnw399299 0.1 1007347
09:00−11n388493 0.1 1009270
12:00−7nnw2576100 0.0 1011509
15:00−6wnw248198 0.1 1012670
18:00−7wnw3789100 0.1 1012325
21:00−11nw239161 0.1 101455
6 march, sat
sat600:00−11nw239424 0.0 101544
03:00−12wnw239512 0.0 101551
06:00−13w12963 0.0 101320
09:00−11ssw249616 0.0 1011109
12:00−7ssw488973 0.0 1007373
15:00−5ssw6129386 0.3 1001776
18:00−5s81494100 1.6 994916
21:00−3ssw41097100 4.6 987518
7 march, sun
sun700:00−1wsw51295100 2.6 982857
03:00−6wnw81487100 3.0 980840
06:00−10w41093100 0.1 979791
09:00−10w3792100 0.4 980480
12:00−7n41090100 0.9 984838
15:00−7nne71381100 1.1 9891107
18:00−9nne71479100 0.1 9951178
21:00−11nne61479100 0.1 1000968